This is the latest recevied weather packets stored in our database for station/object CQ0XPG-11. If no packets are shown the sender has not sent any weather packets the latest 1 day(s).
| Time | Temp. | Humidity | Pressure | Rain* | Wind** | Luminosity | Snow |
|---|---|---|---|---|---|---|---|
| 1778037198 | 3.89° C | 100% | 1004.4 hPa | 0 mm | - | - | - |
| 1778036906 | 3.89° C | 100% | 1004.4 hPa | 0 mm | - | - | - |
| 1778036267 | 4.44° C | 100% | 1004.4 hPa | 0 mm | - | - | - |
| 1778036000 | 4.44° C | 100% | 1004.4 hPa | 0 mm | - | - | - |
| 1778035662 | 4.44° C | 100% | 1004.6 hPa | 0 mm | - | - | - |
| 1778035373 | 4.44° C | 100% | 1004.6 hPa | 0 mm | - | - | - |
| 1778035083 | 5° C | 100% | 1004.6 hPa | 0 mm | - | - | - |
| 1778034785 | 5° C | 100% | 1004.6 hPa | 0 mm | - | - | - |
| 1778034477 | 5° C | 100% | 1004.6 hPa | 0 mm | - | - | - |
| 1778033840 | 5° C | 100% | 1004.8 hPa | 0 mm | - | - | - |
| 1778031431 | 5.56° C | 100% | 1005.1 hPa | 0 mm | - | - | - |
| 1778030807 | 6.67° C | 100% | 1005.2 hPa | 0 mm | - | - | - |
| 1778030563 | 6.67° C | 100% | 1005.2 hPa | 0 mm | - | - | - |
| 1778029910 | 6.11° C | 100% | 1005.3 hPa | 0 mm | - | - | - |
| 1778029590 | 6.11° C | 100% | 1005.4 hPa | 0 mm | - | - | - |
| 1778028987 | 6.11° C | 100% | 1005.5 hPa | 0 mm | - | - | - |
| 1778028737 | 6.11° C | 100% | 1005.6 hPa | 0 mm | - | - | - |
| 1778028381 | 6.67° C | 100% | 1005.6 hPa | 0 mm | - | - | - |
| 1778028081 | 6.67° C | 100% | 1005.7 hPa | 0 mm | - | - | - |
| 1778027770 | 6.67° C | 100% | 1005.7 hPa | 0 mm | - | - | - |
| 1778027475 | 6.67° C | 100% | 1005.8 hPa | 0 mm | - | - | - |
| 1778026893 | 6.11° C | 100% | 1005.8 hPa | 0 mm | - | - | - |
| 1778026584 | 5.56° C | 100% | 1005.8 hPa | 0 mm | - | - | - |
| 1778026277 | 5.56° C | 100% | 1006 hPa | 0 mm | - | - | - |
| 1778025978 | 5.56° C | 100% | 1006.1 hPa | 0 mm | - | - | - |
* Rain since midnight (hover to see other rain measurements)
** Current wind speed in m/s (hover to see current wind gust speed)